| time (UTC) | temp F | wind direction | speed MPH | gust MPH | rain 1hr in | rain 24hr in | rain mn in | humidity % | barometer mb |
| 20260502234204 | 49 | 83 | 3.0 | 9.0 | 0.00 | 0.00 | 0.00 | 31 | 1016.3 |
| 20260502234004 | 49 | 70 | 3.0 | 9.0 | 0.00 | 0.00 | 0.00 | 28 | 1016.3 |
| 20260502233804 | 49 | 56 | 3.0 | 9.0 | 0.00 | 0.00 | 0.00 | 30 | 1016.4 |
| 20260502233604 | 49 | 55 | 3.0 | 5.0 | 0.00 | 0.00 | 0.00 | 30 | 1016.4 |
| 20260502233404 | 49 | 40 | 3.0 | 8.0 | 0.00 | 0.00 | 0.00 | 30 | 1016.4 |
| 20260502233204 | 49 | 26 | 4.0 | 8.0 | 0.00 | 0.00 | 0.00 | 28 | 1016.3 |
| 20260502233004 | 49 | 31 | 4.0 | 8.0 | 0.00 | 0.00 | 0.00 | 28 | 1016.4 |
| 20260502232804 | 49 | 35 | 3.0 | 8.0 | 0.00 | 0.00 | 0.00 | 26 | 1016.4 |
| 20260502232604 | 49 | 38 | 3.0 | 8.0 | 0.00 | 0.00 | 0.00 | 28 | 1016.4 |
| 20260502232404 | 49 | 46 | 3.0 | 8.0 | 0.00 | 0.00 | 0.00 | 28 | 1016.5 |
| 20260502232204 | 49 | 46 | 3.0 | 10.0 | 0.00 | 0.00 | 0.00 | 28 | 1016.4 |
| 20260502232004 | 49 | 37 | 4.0 | 10.0 | 0.00 | 0.00 | 0.00 | 28 | 1016.4 |
| 20260502231804 | 49 | 24 | 4.0 | 10.0 | 0.00 | 0.00 | 0.00 | 27 | 1016.5 |
| 20260502231604 | 49 | 14 | 4.0 | 10.0 | 0.00 | 0.00 | 0.00 | 30 | 1016.5 |
| 20260502231425 | 49 | 12 | 4.0 | 10.0 | 0.00 | 0.00 | 0.00 | 30 | 1016.5 |
| 20260502231204 | 49 | 15 | 4.0 | 9.0 | 0.00 | 0.00 | 0.00 | 31 | 1016.5 |
| 20260502231004 | 49 | 22 | 4.0 | 9.0 | 0.00 | 0.00 | 0.00 | 27 | 1016.5 |
| 20260502230804 | 49 | 22 | 5.0 | 8.0 | 0.00 | 0.00 | 0.00 | 31 | 1016.5 |
| 20260502230604 | 49 | 20 | 5.0 | 9.0 | 0.00 | 0.00 | 0.00 | 30 | 1016.5 |
| 20260502230425 | 49 | 22 | 5.0 | 9.0 | 0.00 | 0.00 | 0.00 | 30 | 1016.6 |
| 20260502230204 | 49 | 20 | 6.0 | 11.0 | 0.00 | 0.00 | 0.00 | 31 | 1016.5 |
| 20260502230004 | 49 | 15 | 5.0 | 11.0 | 0.00 | 0.00 | 0.00 | 32 | 1016.6 |
| 20260502225804 | 49 | 22 | 5.0 | 11.0 | 0.00 | 0.00 | 0.00 | 29 | 1016.6 |
| 20260502225604 | 50 | 22 | 5.0 | 11.0 | 0.00 | 0.00 | 0.00 | 30 | 1016.6 |
| 20260502225404 | 50 | 22 | 5.0 | 11.0 | 0.00 | 0.00 | 0.00 | 29 | 1016.5 |
| 20260502225204 | 50 | 24 | 4.0 | 10.0 | 0.00 | 0.00 | 0.00 | 31 | 1016.5 |
| 20260502225004 | 50 | 35 | 4.0 | 10.0 | 0.00 | 0.00 | 0.00 | 31 | 1016.6 |
| 20260502224825 | 50 | 38 | 4.0 | 10.0 | 0.00 | 0.00 | 0.00 | 31 | 1016.5 |
| 20260502224604 | 50 | 67 | 5.0 | 11.0 | 0.00 | 0.00 | 0.00 | 30 | 1016.5 |
| 20260502224425 | 49 | 71 | 5.0 | 11.0 | 0.00 | 0.00 | 0.00 | 30 | 1016.5 |
| 20260502224204 | 49 | 74 | 5.0 | 11.0 | 0.00 | 0.00 | 0.00 | 29 | 1016.5 |
| 20260502224004 | 50 | 65 | 5.0 | 11.0 | 0.00 | 0.00 | 0.00 | 29 | 1016.5 |
| 20260502223804 | 50 | 54 | 5.0 | 11.0 | 0.00 | 0.00 | 0.00 | 26 | 1016.6 |
| 20260502223604 | 50 | 49 | 5.0 | 9.0 | 0.00 | 0.00 | 0.00 | 28 | 1016.5 |
| 20260502223404 | 50 | 53 | 5.0 | 9.0 | 0.00 | 0.00 | 0.00 | 30 | 1016.5 |
| 20260502223204 | 50 | 64 | 5.0 | 10.0 | 0.00 | 0.00 | 0.00 | 30 | 1016.6 |
| 20260502223004 | 50 | 67 | 5.0 | 10.0 | 0.00 | 0.00 | 0.00 | 28 | 1016.6 |
| 20260502222804 | 50 | 71 | 5.0 | 10.0 | 0.00 | 0.00 | 0.00 | 27 | 1016.5 |
| 20260502222604 | 50 | 66 | 4.0 | 10.0 | 0.00 | 0.00 | 0.00 | 31 | 1016.6 |
| 20260502222425 | 50 | 65 | 4.0 | 10.0 | 0.00 | 0.00 | 0.00 | 30 | 1016.6 |
| 20260502222204 | 50 | 61 | 4.0 | 9.0 | 0.00 | 0.00 | 0.00 | 33 | 1016.6 |
| 20260502222004 | 50 | 71 | 4.0 | 11.0 | 0.00 | 0.00 | 0.00 | 30 | 1016.6 |
| 20260502221804 | 50 | 81 | 4.0 | 11.0 | 0.00 | 0.00 | 0.00 | 32 | 1016.6 |
| 20260502221604 | 50 | 78 | 5.0 | 11.0 | 0.00 | 0.00 | 0.00 | 32 | 1016.5 |
| 20260502221404 | 50 | 70 | 5.0 | 11.0 | 0.00 | 0.00 | 0.00 | 28 | 1016.6 |
| 20260502221225 | 50 | 49 | 5.0 | 11.0 | 0.00 | 0.00 | 0.00 | 29 | 1016.6 |
| 20260502221004 | 50 | 24 | 5.0 | 10.0 | 0.00 | 0.00 | 0.00 | 30 | 1016.6 |
| 20260502220804 | 50 | 6 | 5.0 | 10.0 | 0.00 | 0.00 | 0.00 | 32 | 1016.6 |
| 20260502220625 | 50 | 353 | 5.0 | 10.0 | 0.00 | 0.00 | 0.00 | 31 | 1016.5 |
| 20260502220404 | 50 | 357 | 6.0 | 13.0 | 0.00 | 0.00 | 0.00 | 29 | 1016.5 |
| 20260502220225 | 50 | 7 | 5.0 | 13.0 | 0.00 | 0.00 | 0.00 | 29 | 1016.5 |
| 20260502220004 | 50 | 11 | 5.0 | 13.0 | 0.00 | 0.00 | 0.00 | 35 | 1016.5 |
| 20260502215804 | 50 | 18 | 5.0 | 13.0 | 0.00 | 0.00 | 0.00 | 30 | 1016.6 |
| 20260502215604 | 50 | 34 | 5.0 | 13.0 | 0.00 | 0.00 | 0.00 | 32 | 1016.5 |
| 20260502215404 | 50 | 31 | 5.0 | 11.0 | 0.00 | 0.00 | 0.00 | 32 | 1016.5 |
| 20260502215204 | 50 | 29 | 5.0 | 11.0 | 0.00 | 0.00 | 0.00 | 31 | 1016.5 |
| 20260502215004 | 50 | 39 | 6.0 | 11.0 | 0.00 | 0.00 | 0.00 | 29 | 1016.5 |
| 20260502214804 | 50 | 42 | 6.0 | 12.0 | 0.00 | 0.00 | 0.00 | 32 | 1016.6 |
| 20260502214604 | 50 | 48 | 6.0 | 12.0 | 0.00 | 0.00 | 0.00 | 33 | 1016.6 |
| 20260502214404 | 50 | 62 | 5.0 | 12.0 | 0.00 | 0.00 | 0.00 | 33 | 1016.5 |
| 20260502214225 | 49 | 73 | 6.0 | 12.0 | 0.00 | 0.00 | 0.00 | 33 | 1016.5 |
| 20260502214004 | 49 | 69 | 5.0 | 14.0 | 0.00 | 0.00 | 0.00 | 32 | 1016.5 |
| 20260502213804 | 49 | 66 | 5.0 | 14.0 | 0.00 | 0.00 | 0.00 | 32 | 1016.6 |
| 20260502213604 | 49 | 52 | 5.0 | 14.0 | 0.00 | 0.00 | 0.00 | 33 | 1016.6 |
| 20260502213404 | 50 | 34 | 5.0 | 14.0 | 0.00 | 0.00 | 0.00 | 34 | 1016.6 |
| 20260502213204 | 50 | 27 | 5.0 | 12.0 | 0.00 | 0.00 | 0.00 | 36 | 1016.6 |
| 20260502213004 | 50 | 30 | 6.0 | 12.0 | 0.00 | 0.00 | 0.00 | 37 | 1016.5 |
| 20260502212804 | 50 | 43 | 7.0 | 12.0 | 0.00 | 0.00 | 0.00 | 33 | 1016.5 |
| 20260502212625 | 50 | 40 | 6.0 | 12.0 | 0.00 | 0.00 | 0.00 | 33 | 1016.6 |
| 20260502212404 | 50 | 47 | 6.0 | 11.0 | 0.00 | 0.00 | 0.00 | 32 | 1016.6 |
| 20260502212204 | 50 | 40 | 6.0 | 12.0 | 0.00 | 0.00 | 0.00 | 34 | 1016.5 |
| 20260502212004 | 50 | 38 | 5.0 | 12.0 | 0.00 | 0.00 | 0.00 | 36 | 1016.5 |
| 20260502211804 | 50 | 33 | 5.0 | 12.0 | 0.00 | 0.00 | 0.00 | 34 | 1016.5 |
| 20260502211604 | 50 | 35 | 6.0 | 12.0 | 0.00 | 0.00 | 0.00 | 34 | 1016.6 |
| 20260502211425 | 50 | 32 | 6.0 | 12.0 | 0.00 | 0.00 | 0.00 | 33 | 1016.5 |
| 20260502211204 | 50 | 32 | 6.0 | 14.0 | 0.00 | 0.00 | 0.00 | 34 | 1016.5 |
| 20260502211004 | 49 | 25 | 7.0 | 14.0 | 0.00 | 0.00 | 0.00 | 37 | 1016.5 |
| 20260502210804 | 49 | 13 | 7.0 | 14.0 | 0.00 | 0.00 | 0.00 | 35 | 1016.6 |
| 20260502210604 | 50 | 10 | 7.0 | 14.0 | 0.00 | 0.00 | 0.00 | 33 | 1016.5 |
| 20260502210404 | 50 | 6 | 8.0 | 14.0 | 0.00 | 0.00 | 0.00 | 33 | 1016.5 |
| 20260502210204 | 50 | 11 | 7.0 | 14.0 | 0.00 | 0.00 | 0.00 | 34 | 1016.5 |
| 20260502210025 | 50 | 12 | 7.0 | 12.0 | 0.00 | 0.00 | 0.00 | 32 | 1016.5 |
| 20260502205825 | 51 | 12 | 7.0 | 16.0 | 0.00 | 0.00 | 0.00 | 35 | 1016.6 |
| 20260502205604 | 51 | 15 | 6.0 | 16.0 | 0.00 | 0.00 | 0.00 | 37 | 1016.7 |
| 20260502205404 | 51 | 31 | 5.0 | 16.0 | 0.00 | 0.00 | 0.00 | 35 | 1016.6 |
| 20260502205204 | 51 | 31 | 5.0 | 16.0 | 0.00 | 0.00 | 0.00 | 33 | 1016.6 |
| 20260502205004 | 51 | 38 | 5.0 | 16.0 | 0.00 | 0.00 | 0.00 | 32 | 1016.6 |
| 20260502204804 | 50 | 45 | 5.0 | 12.0 | 0.00 | 0.00 | 0.00 | 32 | 1016.7 |
| 20260502204625 | 50 | 52 | 5.0 | 12.0 | 0.00 | 0.00 | 0.00 | 30 | 1016.7 |
| 20260502204425 | 50 | 41 | 5.0 | 14.0 | 0.00 | 0.00 | 0.00 | 32 | 1016.7 |
| 20260502204204 | 50 | 39 | 5.0 | 14.0 | 0.00 | 0.00 | 0.00 | 36 | 1016.7 |
| 20260502204025 | 50 | 41 | 5.0 | 14.0 | 0.00 | 0.00 | 0.00 | 32 | 1016.7 |
| 20260502203804 | 50 | 60 | 5.0 | 14.0 | 0.00 | 0.00 | 0.00 | 31 | 1016.7 |
| 20260502203604 | 50 | 73 | 5.0 | 14.0 | 0.00 | 0.00 | 0.00 | 32 | 1016.8 |
| 20260502203204 | 50 | 68 | 6.0 | 11.0 | 0.00 | 0.00 | 0.00 | 30 | 1016.7 |
| 20260502203025 | 50 | 38 | 6.0 | 15.0 | 0.00 | 0.00 | 0.00 | 31 | 1016.8 |
| 20260502202804 | 50 | 16 | 6.0 | 15.0 | 0.00 | 0.00 | 0.00 | 31 | 1016.8 |
| 20260502202625 | 50 | 17 | 6.0 | 15.0 | 0.00 | 0.00 | 0.00 | 35 | 1016.8 |
| 20260502202404 | 50 | 34 | 7.0 | 15.0 | 0.00 | 0.00 | 0.00 | 32 | 1016.9 |
| 20260502202204 | 50 | 44 | 7.0 | 15.0 | 0.00 | 0.00 | 0.00 | 35 | 1016.9 |
| 20260502202004 | 50 | 72 | 6.0 | 12.0 | 0.00 | 0.00 | 0.00 | 33 | 1016.9 |
| 20260502201804 | 50 | 89 | 6.0 | 11.0 | 0.00 | 0.00 | 0.00 | 32 | 1016.7 |
| 20260502201604 | 50 | 82 | 6.0 | 11.0 | 0.00 | 0.00 | 0.00 | 36 | 1016.9 |
| 20260502201404 | 50 | 66 | 5.0 | 11.0 | 0.00 | 0.00 | 0.00 | 34 | 1016.9 |
| 20260502201204 | 50 | 57 | 5.0 | 10.0 | 0.00 | 0.00 | 0.00 | 30 | 1016.9 |
| 20260502201004 | 50 | 30 | 5.0 | 10.0 | 0.00 | 0.00 | 0.00 | 31 | 1017.0 |
| 20260502200825 | 50 | 17 | 5.0 | 10.0 | 0.00 | 0.00 | 0.00 | 34 | 1017.0 |
| 20260502200604 | 50 | 2 | 5.0 | 11.0 | 0.00 | 0.00 | 0.00 | 38 | 1017.0 |
| 20260502200404 | 50 | 360 | 6.0 | 11.0 | 0.00 | 0.00 | 0.00 | 33 | 1017.0 |
| 20260502200204 | 50 | 7 | 7.0 | 15.0 | 0.00 | 0.00 | 0.00 | 34 | 1017.1 |
| 20260502200004 | 50 | 10 | 7.0 | 15.0 | 0.00 | 0.00 | 0.00 | 34 | 1017.1 |
| 20260502195804 | 50 | 9 | 6.0 | 15.0 | 0.00 | 0.00 | 0.00 | 37 | 1017.1 |
| 20260502195604 | 50 | 20 | 6.0 | 15.0 | 0.00 | 0.00 | 0.00 | 32 | 1017.1 |
| 20260502195404 | 50 | 39 | 6.0 | 15.0 | 0.00 | 0.00 | 0.00 | 33 | 1017.2 |
| 20260502195204 | 49 | 58 | 6.0 | 12.0 | 0.00 | 0.00 | 0.00 | 40 | 1017.2 |
| 20260502195004 | 49 | 61 | 5.0 | 12.0 | 0.00 | 0.00 | 0.00 | 37 | 1017.3 |
| 20260502194803 | 48 | 60 | 6.0 | 12.0 | 0.00 | 0.00 | 0.00 | 34 | 1017.3 |
| 20260502194625 | 48 | 52 | 6.0 | 12.0 | 0.00 | 0.00 | 0.00 | 35 | 1017.4 |
| 20260502194425 | 49 | 50 | 5.0 | 12.0 | 0.00 | 0.00 | 0.00 | 35 | 1017.4 |
| 20260502194204 | 49 | 49 | 5.0 | 12.0 | 0.00 | 0.00 | 0.00 | 37 | 1017.4 |
| 20260502194004 | 49 | 43 | 5.0 | 12.0 | 0.00 | 0.00 | 0.00 | 34 | 1017.4 |
| 20260502193804 | 49 | 41 | 5.0 | 10.0 | 0.00 | 0.00 | 0.00 | 37 | 1017.4 |
| 20260502193604 | 49 | 42 | 5.0 | 10.0 | 0.00 | 0.00 | 0.00 | 37 | 1017.4 |
| 20260502193404 | 49 | 22 | 5.0 | 10.0 | 0.00 | 0.00 | 0.00 | 36 | 1017.4 |
| 20260502193225 | 49 | 10 | 6.0 | 11.0 | 0.00 | 0.00 | 0.00 | 36 | 1017.3 |
| 20260502193004 | 49 | 1 | 6.0 | 12.0 | 0.00 | 0.00 | 0.00 | 37 | 1017.4 |
| 20260502192804 | 49 | 5 | 6.0 | 12.0 | 0.00 | 0.00 | 0.00 | 36 | 1017.5 |
| 20260502192625 | 48 | 5 | 6.0 | 12.0 | 0.00 | 0.00 | 0.00 | 36 | 1017.5 |
| 20260502192404 | 48 | 17 | 5.0 | 12.0 | 0.00 | 0.00 | 0.00 | 36 | 1017.5 |
| 20260502192204 | 48 | 21 | 5.0 | 13.0 | 0.00 | 0.00 | 0.00 | 39 | 1017.6 |
| 20260502192004 | 48 | 23 | 5.0 | 13.0 | 0.00 | 0.00 | 0.00 | 36 | 1017.6 |
| 20260502191804 | 48 | 38 | 5.0 | 13.0 | 0.00 | 0.00 | 0.00 | 37 | 1017.6 |
| 20260502191625 | 48 | 51 | 5.0 | 13.0 | 0.00 | 0.00 | 0.00 | 39 | 1017.6 |
| 20260502191404 | 48 | 45 | 6.0 | 13.0 | 0.00 | 0.00 | 0.00 | 39 | 1017.6 |
| 20260502191204 | 48 | 67 | 5.0 | 10.0 | 0.00 | 0.00 | 0.00 | 40 | 1017.6 |
| 20260502191025 | 47 | 86 | 5.0 | 12.0 | 0.00 | 0.00 | 0.00 | 35 | 1017.6 |
| 20260502190825 | 47 | 81 | 5.0 | 12.0 | 0.00 | 0.00 | 0.00 | 34 | 1017.6 |
| 20260502190604 | 47 | 75 | 5.0 | 12.0 | 0.00 | 0.00 | 0.00 | 38 | 1017.7 |
| 20260502190425 | 47 | 81 | 5.0 | 12.0 | 0.00 | 0.00 | 0.00 | 38 | 1017.6 |
| 20260502190204 | 47 | 76 | 5.0 | 12.0 | 0.00 | 0.00 | 0.00 | 34 | 1017.6 |
| 20260502190004 | 47 | 66 | 4.0 | 10.0 | 0.00 | 0.00 | 0.00 | 37 | 1017.7 |
| 20260502185804 | 48 | 68 | 4.0 | 10.0 | 0.00 | 0.00 | 0.00 | 35 | 1017.7 |
| 20260502185604 | 48 | 46 | 4.0 | 10.0 | 0.00 | 0.00 | 0.00 | 38 | 1017.7 |
| 20260502185425 | 48 | 27 | 4.0 | 10.0 | 0.00 | 0.00 | 0.00 | 36 | 1017.8 |
| 20260502185204 | 48 | 19 | 4.0 | 11.0 | 0.00 | 0.00 | 0.00 | 38 | 1017.8 |
| 20260502185004 | 48 | 21 | 5.0 | 11.0 | 0.00 | 0.00 | 0.00 | 36 | 1017.8 |
| 20260502184804 | 48 | 17 | 5.0 | 11.0 | 0.00 | 0.00 | 0.00 | 35 | 1017.9 |
| 20260502184625 | 48 | 17 | 5.0 | 11.0 | 0.00 | 0.00 | 0.00 | 39 | 1017.8 |
| 20260502184404 | 49 | 17 | 6.0 | 11.0 | 0.00 | 0.00 | 0.00 | 37 | 1017.8 |
| 20260502184204 | 48 | 11 | 6.0 | 11.0 | 0.00 | 0.00 | 0.00 | 38 | 1017.9 |
| 20260502184025 | 48 | 12 | 6.0 | 11.0 | 0.00 | 0.00 | 0.00 | 41 | 1017.9 |
| 20260502183825 | 48 | 17 | 6.0 | 11.0 | 0.00 | 0.00 | 0.00 | 38 | 1017.9 |
| 20260502183625 | 47 | 33 | 6.0 | 11.0 | 0.00 | 0.00 | 0.00 | 38 | 1017.9 |
| 20260502183425 | 47 | 51 | 5.0 | 11.0 | 0.00 | 0.00 | 0.00 | 38 | 1018.0 |
| 20260502183204 | 47 | 79 | 5.0 | 10.0 | 0.00 | 0.00 | 0.00 | 38 | 1018.0 |
| 20260502183004 | 48 | 92 | 5.0 | 13.0 | 0.00 | 0.00 | 0.00 | 36 | 1017.9 |
| 20260502182804 | 48 | 85 | 5.0 | 13.0 | 0.00 | 0.00 | 0.00 | 35 | 1017.9 |
| 20260502182604 | 48 | 67 | 5.0 | 13.0 | 0.00 | 0.00 | 0.00 | 36 | 1018.0 |
| 20260502182404 | 49 | 58 | 5.0 | 13.0 | 0.00 | 0.00 | 0.00 | 37 | 1018.0 |
| 20260502182204 | 49 | 32 | 6.0 | 13.0 | 0.00 | 0.00 | 0.00 | 40 | 1018.0 |
| 20260502182004 | 48 | 17 | 5.0 | 12.0 | 0.00 | 0.00 | 0.00 | 41 | 1018.0 |
| 20260502181804 | 48 | 17 | 5.0 | 12.0 | 0.00 | 0.00 | 0.00 | 42 | 1018.1 |
| 20260502181604 | 47 | 24 | 5.0 | 12.0 | 0.00 | 0.00 | 0.00 | 40 | 1018.1 |
| 20260502181404 | 47 | 29 | 5.0 | 12.0 | 0.00 | 0.00 | 0.00 | 42 | 1018.1 |
| 20260502181204 | 46 | 48 | 4.0 | 10.0 | 0.00 | 0.00 | 0.00 | 42 | 1018.1 |
| 20260502181004 | 46 | 48 | 4.0 | 9.0 | 0.00 | 0.00 | 0.00 | 40 | 1018.2 |
| 20260502180825 | 46 | 48 | 4.0 | 8.0 | 0.00 | 0.00 | 0.00 | 45 | 1018.2 |
| 20260502180604 | 46 | 28 | 5.0 | 11.0 | 0.00 | 0.00 | 0.00 | 40 | 1018.2 |
| 20260502180404 | 47 | 19 | 5.0 | 11.0 | 0.00 | 0.00 | 0.00 | 42 | 1018.2 |
| 20260502180204 | 47 | 6 | 5.0 | 11.0 | 0.00 | 0.00 | 0.00 | 39 | 1018.2 |
| 20260502170404 | 45 | 86 | 3.0 | 9.0 | 0.00 | 0.00 | 0.00 | 37 | 1018.7 |
| 20260502170204 | 45 | 82 | 2.0 | 9.0 | 0.00 | 0.00 | 0.00 | 40 | 1018.7 |
| 20260502164204 | 45 | 89 | 3.0 | 11.0 | 0.00 | 0.01 | 0.00 | 37 | 1018.8 |
| 20260502164004 | 45 | 89 | 3.0 | 11.0 | 0.00 | 0.01 | 0.00 | 39 | 1018.8 |
| 20260502163804 | 46 | 85 | 2.0 | 11.0 | 0.00 | 0.01 | 0.00 | 39 | 1018.8 |
| 20260502163625 | 46 | 84 | 2.0 | 10.0 | 0.00 | 0.01 | 0.00 | 38 | 1018.8 |
| 20260502163404 | 46 | 65 | 2.0 | 7.0 | 0.00 | 0.01 | 0.00 | 37 | 1018.8 |
| 20260502163225 | 46 | 46 | 2.0 | 7.0 | 0.00 | 0.01 | 0.00 | 37 | 1018.8 |
| 20260502163004 | 46 | 24 | 3.0 | 7.0 | 0.00 | 0.01 | 0.00 | 38 | 1018.8 |
| 20260502162804 | 46 | 39 | 3.0 | 7.0 | 0.00 | 0.01 | 0.00 | 43 | 1018.8 |
| 20260502162604 | 45 | 45 | 3.0 | 6.0 | 0.00 | 0.01 | 0.00 | 42 | 1018.8 |
| 20260502162425 | 45 | 54 | 3.0 | 6.0 | 0.00 | 0.01 | 0.00 | 42 | 1018.9 |
| 20260502162204 | 44 | 67 | 3.0 | 7.0 | 0.00 | 0.01 | 0.00 | 40 | 1018.9 |
| 20260502162004 | 44 | 67 | 4.0 | 7.0 | 0.00 | 0.01 | 0.00 | 39 | 1018.9 |
| 20260502161804 | 44 | 51 | 4.0 | 9.0 | 0.00 | 0.01 | 0.00 | 39 | 1018.9 |
| 20260502161604 | 44 | 54 | 3.0 | 9.0 | 0.00 | 0.01 | 0.00 | 40 | 1018.9 |
| 20260502161404 | 44 | 51 | 3.0 | 9.0 | 0.00 | 0.01 | 0.00 | 42 | 1019.0 |
| 20260502161204 | 44 | 42 | 3.0 | 9.0 | 0.00 | 0.01 | 0.00 | 43 | 1018.9 |
| 20260502161025 | 44 | 45 | 3.0 | 9.0 | 0.00 | 0.01 | 0.00 | 42 | 1018.9 |
| 20260502160804 | 44 | 81 | 3.0 | 8.0 | 0.00 | 0.01 | 0.00 | 39 | 1018.9 |
| 20260502160604 | 44 | 83 | 4.0 | 8.0 | 0.00 | 0.01 | 0.00 | 38 | 1019.0 |
| 20260502160425 | 44 | 89 | 4.0 | 8.0 | 0.00 | 0.01 | 0.00 | 38 | 1019.0 |
| 20260502160204 | 44 | 106 | 4.0 | 8.0 | 0.00 | 0.01 | 0.00 | 39 | 1019.0 |
| 20260502152204 | 44 | 136 | 3.0 | 8.0 | 0.00 | 0.01 | 0.00 | 40 | 1019.0 |
| 20260502152004 | 43 | 125 | 4.0 | 8.0 | 0.00 | 0.01 | 0.00 | 39 | 1019.1 |
| 20260502151805 | 43 | 107 | 4.0 | 8.0 | 0.00 | 0.01 | 0.00 | 44 | 1019.0 |
| 20260502151604 | 43 | 110 | 4.0 | 8.0 | 0.00 | 0.01 | 0.00 | 44 | 1019.0 |
| 20260502151405 | 43 | 107 | 4.0 | 8.0 | 0.00 | 0.01 | 0.00 | 40 | 1019.0 |
| 20260502151204 | 42 | 94 | 4.0 | 8.0 | 0.00 | 0.01 | 0.00 | 42 | 1019.0 |
| 20260502151005 | 42 | 89 | 3.0 | 8.0 | 0.00 | 0.01 | 0.00 | 44 | 1019.0 |
| 20260502150804 | 42 | 79 | 3.0 | 7.0 | 0.00 | 0.01 | 0.00 | 45 | 1019.0 |
| 20260502150604 | 42 | 67 | 4.0 | 7.0 | 0.00 | 0.01 | 0.00 | 43 | 1019.0 |
| 20260502150426 | 42 | 60 | 3.0 | 7.0 | 0.00 | 0.01 | 0.00 | 43 | 1019.0 |
| 20260502150226 | 42 | 56 | 3.0 | 7.0 | 0.00 | 0.01 | 0.00 | 47 | 1019.0 |
| 20260502130605 | 38 | 99 | 3.0 | 7.0 | 0.00 | 0.01 | 0.00 | 57 | 1019.0 |
| 20260502130404 | 38 | 97 | 4.0 | 7.0 | 0.00 | 0.01 | 0.00 | 57 | 1019.0 |
| 20260502130205 | 38 | 96 | 4.0 | 8.0 | 0.00 | 0.01 | 0.00 | 56 | 1018.9 |
| 20260502123804 | 38 | 101 | 3.0 | 6.0 | 0.00 | 0.01 | 0.00 | 58 | 1018.9 |
| 20260502123604 | 37 | 96 | 3.0 | 7.0 | 0.00 | 0.01 | 0.00 | 58 | 1018.9 |
| 20260502123405 | 37 | 93 | 3.0 | 7.0 | 0.00 | 0.01 | 0.00 | 59 | 1018.9 |
| 20260502123204 | 37 | 90 | 2.0 | 7.0 | 0.00 | 0.01 | 0.00 | 59 | 1018.9 |
| 20260502123005 | 37 | 92 | 2.0 | 7.0 | 0.00 | 0.01 | 0.00 | 59 | 1018.9 |
| 20260502122804 | 37 | 93 | 2.0 | 7.0 | 0.00 | 0.01 | 0.00 | 59 | 1018.9 |
| 20260502122604 | 37 | 99 | 2.0 | 5.0 | 0.00 | 0.01 | 0.00 | 59 | 1018.9 |
| 20260502122404 | 37 | 99 | 2.0 | 5.0 | 0.00 | 0.01 | 0.00 | 59 | 1018.9 |
| 20260502122205 | 37 | 101 | 1.0 | 4.0 | 0.00 | 0.01 | 0.00 | 59 | 1018.9 |
| 20260502122004 | 37 | 103 | 2.0 | 4.0 | 0.00 | 0.01 | 0.00 | 59 | 1018.9 |
| 20260502121805 | 37 | 100 | 1.0 | 5.0 | 0.00 | 0.01 | 0.00 | 59 | 1018.8 |
| 20260502121605 | 36 | 92 | 2.0 | 5.0 | 0.00 | 0.01 | 0.00 | 59 | 1018.8 |
| 20260502121404 | 36 | 92 | 2.0 | 5.0 | 0.00 | 0.01 | 0.00 | 59 | 1018.8 |
| 20260502121204 | 36 | 95 | 2.0 | 5.0 | 0.00 | 0.01 | 0.00 | 59 | 1018.8 |
| 20260502121005 | 36 | 95 | 2.0 | 5.0 | 0.00 | 0.01 | 0.00 | 59 | 1018.8 |
| 20260502120804 | 36 | 100 | 2.0 | 5.0 | 0.00 | 0.01 | 0.00 | 59 | 1018.7 |
| 20260502120604 | 36 | 102 | 2.0 | 5.0 | 0.00 | 0.01 | 0.00 | 60 | 1018.7 |
| 20260502120404 | 36 | 98 | 2.0 | 5.0 | 0.00 | 0.01 | 0.00 | 60 | 1018.8 |
| 20260502120204 | 36 | 95 | 2.0 | 4.0 | 0.00 | 0.01 | 0.00 | 60 | 1018.7 |
| 20260502115825 | 35 | 91 | 2.0 | 4.0 | 0.00 | 0.01 | 0.00 | 60 | 1018.7 |
| 20260502115604 | 35 | 89 | 2.0 | 4.0 | 0.00 | 0.01 | 0.00 | 60 | 1018.7 |
| 20260502115404 | 35 | 91 | 2.0 | 4.0 | 0.00 | 0.01 | 0.00 | 60 | 1018.6 |
| 20260502115205 | 35 | 91 | 2.0 | 4.0 | 0.00 | 0.01 | 0.00 | 60 | 1018.6 |
| 20260502115025 | 35 | 93 | 2.0 | 4.0 | 0.00 | 0.01 | 0.00 | 61 | 1018.6 |
| 20260502114804 | 35 | 92 | 2.0 | 5.0 | 0.00 | 0.01 | 0.00 | 61 | 1018.6 |
| 20260502114605 | 35 | 91 | 2.0 | 5.0 | 0.00 | 0.01 | 0.00 | 61 | 1018.6 |
| 20260502114404 | 34 | 93 | 2.0 | 5.0 | 0.00 | 0.01 | 0.00 | 61 | 1018.6 |
| 20260502114205 | 34 | 94 | 2.0 | 5.0 | 0.00 | 0.01 | 0.00 | 61 | 1018.6 |
| 20260502114004 | 34 | 94 | 2.0 | 6.0 | 0.00 | 0.01 | 0.00 | 61 | 1018.6 |
| 20260502113805 | 34 | 92 | 2.0 | 6.0 | 0.00 | 0.01 | 0.00 | 61 | 1018.6 |
| 20260502113604 | 34 | 92 | 3.0 | 6.0 | 0.00 | 0.01 | 0.00 | 61 | 1018.6 |
| 20260502113405 | 34 | 92 | 2.0 | 6.0 | 0.00 | 0.01 | 0.00 | 62 | 1018.5 |
| 20260502113205 | 34 | 94 | 2.0 | 6.0 | 0.00 | 0.01 | 0.00 | 62 | 1018.5 |
| 20260502113004 | 34 | 94 | 2.0 | 5.0 | 0.00 | 0.01 | 0.00 | 62 | 1018.4 |
| 20260502112805 | 33 | 97 | 1.0 | 4.0 | 0.00 | 0.01 | 0.00 | 63 | 1018.4 |
| 20260502112605 | 33 | 98 | 1.0 | 3.0 | 0.00 | 0.01 | 0.00 | 63 | 1018.4 |
| 20260502112404 | 33 | 98 | 1.0 | 3.0 | 0.00 | 0.01 | 0.00 | 64 | 1018.4 |
| 20260502112204 | 33 | 93 | 0.0 | 3.0 | 0.00 | 0.01 | 0.00 | 64 | 1018.4 |
| 20260502112004 | 32 | 92 | 0.0 | 3.0 | 0.00 | 0.01 | 0.00 | 64 | 1018.3 |
| 20260502111804 | 32 | 93 | 0.0 | 3.0 | 0.00 | 0.01 | 0.00 | 65 | 1018.3 |
| 20260502111605 | 32 | 102 | 0.0 | 2.0 | 0.00 | 0.01 | 0.00 | 65 | 1018.3 |
| 20260502111425 | 32 | 102 | 0.0 | 2.0 | 0.00 | 0.01 | 0.00 | 65 | 1018.3 |
| 20260502111205 | 32 | 0 | 0.0 | 0.0 | 0.00 | 0.01 | 0.00 | 65 | 1018.4 |
| 20260502111025 | 32 | 0 | 0.0 | 0.0 | 0.00 | 0.01 | 0.00 | 65 | 1018.3 |
| 20260502110805 | 32 | 0 | 0.0 | 0.0 | 0.00 | 0.01 | 0.00 | 65 | 1018.3 |
| 20260502110604 | 32 | 0 | 0.0 | 0.0 | 0.00 | 0.01 | 0.00 | 65 | 1018.3 |
| 20260502110426 | 32 | 0 | 0.0 | 0.0 | 0.00 | 0.01 | 0.00 | 65 | 1018.3 |
| 20260502110225 | 32 | 0 | 0.0 | 0.0 | 0.00 | 0.01 | 0.00 | 65 | 1018.3 |
| 20260502110026 | 32 | 0 | 0.0 | 0.0 | 0.00 | 0.01 | 0.00 | 65 | 1018.3 |
| 20260502105804 | 32 | 0 | 0.0 | 0.0 | 0.00 | 0.01 | 0.00 | 65 | 1018.2 |
| 20260502105604 | 32 | 0 | 0.0 | 0.0 | 0.00 | 0.01 | 0.00 | 65 | 1018.2 |
| 20260502105425 | 32 | 0 | 0.0 | 0.0 | 0.00 | 0.01 | 0.00 | 66 | 1018.2 |
| 20260502105205 | 32 | 0 | 0.0 | 0.0 | 0.00 | 0.01 | 0.00 | 66 | 1018.2 |
| 20260502105024 | 32 | 0 | 0.0 | 0.0 | 0.00 | 0.01 | 0.00 | 66 | 1018.2 |
| 20260502104805 | 32 | 0 | 0.0 | 0.0 | 0.00 | 0.01 | 0.00 | 66 | 1018.3 |
| 20260502104604 | 31 | 0 | 0.0 | 0.0 | 0.00 | 0.01 | 0.00 | 66 | 1018.3 |
| 20260502104404 | 31 | 0 | 0.0 | 0.0 | 0.00 | 0.01 | 0.00 | 66 | 1018.3 |
| 20260502104204 | 31 | 0 | 0.0 | 0.0 | 0.00 | 0.01 | 0.00 | 66 | 1018.3 |
| 20260502104005 | 31 | 0 | 0.0 | 0.0 | 0.00 | 0.01 | 0.00 | 66 | 1018.3 |
| 20260502103804 | 31 | 0 | 0.0 | 0.0 | 0.00 | 0.01 | 0.00 | 66 | 1018.3 |
| 20260502103604 | 31 | 0 | 0.0 | 0.0 | 0.00 | 0.01 | 0.00 | 66 | 1018.3 |
| 20260502103405 | 31 | 0 | 0.0 | 0.0 | 0.00 | 0.01 | 0.00 | 66 | 1018.3 |
| 20260502103204 | 31 | 0 | 0.0 | 0.0 | 0.00 | 0.01 | 0.00 | 66 | 1018.3 |
| 20260502103026 | 31 | 0 | 0.0 | 0.0 | 0.00 | 0.01 | 0.00 | 66 | 1018.3 |
| 20260502102804 | 31 | 0 | 0.0 | 0.0 | 0.00 | 0.01 | 0.00 | 66 | 1018.3 |
| 20260502102605 | 31 | 0 | 0.0 | 0.0 | 0.00 | 0.01 | 0.00 | 66 | 1018.2 |
| 20260502102404 | 31 | 0 | 0.0 | 0.0 | 0.00 | 0.01 | 0.00 | 66 | 1018.2 |
| 20260502102204 | 31 | 0 | 0.0 | 0.0 | 0.00 | 0.01 | 0.00 | 66 | 1018.3 |
| 20260502102004 | 31 | 0 | 0.0 | 0.0 | 0.00 | 0.01 | 0.00 | 66 | 1018.2 |
| 20260502101826 | 31 | 0 | 0.0 | 0.0 | 0.00 | 0.01 | 0.00 | 65 | 1018.2 |
| 20260502101605 | 31 | 0 | 0.0 | 0.0 | 0.00 | 0.01 | 0.00 | 65 | 1018.2 |
| 20260502101404 | 31 | 0 | 0.0 | 0.0 | 0.00 | 0.01 | 0.00 | 65 | 1018.2 |
| 20260502101205 | 31 | 0 | 0.0 | 0.0 | 0.00 | 0.01 | 0.00 | 65 | 1018.2 |
| 20260502101004 | 31 | 0 | 0.0 | 0.0 | 0.00 | 0.01 | 0.00 | 65 | 1018.2 |
| 20260502100804 | 32 | 0 | 0.0 | 0.0 | 0.00 | 0.01 | 0.00 | 65 | 1018.2 |
| 20260502100605 | 32 | 0 | 0.0 | 0.0 | 0.00 | 0.01 | 0.00 | 65 | 1018.2 |
| 20260502100405 | 32 | 0 | 0.0 | 0.0 | 0.00 | 0.01 | 0.00 | 65 | 1018.2 |
| 20260502100204 | 32 | 0 | 0.0 | 0.0 | 0.00 | 0.01 | 0.00 | 65 | 1018.2 |
| 20260502091405 | 32 | 0 | 0.0 | 0.0 | 0.00 | 0.01 | 0.00 | 65 | 1018.0 |
| 20260502091204 | 32 | 0 | 0.0 | 0.0 | 0.00 | 0.01 | 0.00 | 65 | 1018.0 |
| 20260502091004 | 32 | 0 | 0.0 | 0.0 | 0.00 | 0.01 | 0.00 | 66 | 1017.9 |
| 20260502090804 | 31 | 0 | 0.0 | 0.0 | 0.00 | 0.01 | 0.00 | 65 | 1017.9 |
| 20260502090605 | 31 | 0 | 0.0 | 0.0 | 0.00 | 0.01 | 0.00 | 66 | 1018.0 |
| 20260502090426 | 31 | 0 | 0.0 | 0.0 | 0.00 | 0.01 | 0.00 | 65 | 1018.0 |
| 20260502090205 | 31 | 0 | 0.0 | 0.0 | 0.00 | 0.01 | 0.00 | 65 | 1017.9 |
| 20260502071405 | 32 | 0 | 0.0 | 0.0 | 0.00 | 0.01 | 0.00 | 65 | 1017.8 |
| 20260502071204 | 32 | 0 | 0.0 | 0.0 | 0.00 | 0.01 | 0.00 | 65 | 1017.8 |
| 20260502071004 | 32 | 0 | 0.0 | 0.0 | 0.00 | 0.01 | 0.00 | 64 | 1017.8 |
| 20260502070804 | 32 | 0 | 0.0 | 0.0 | 0.00 | 0.01 | 0.00 | 64 | 1017.8 |
| 20260502070605 | 32 | 0 | 0.0 | 0.0 | 0.00 | 0.01 | 0.00 | 64 | 1017.8 |
| 20260502070405 | 32 | 0 | 0.0 | 0.0 | 0.00 | 0.01 | 0.00 | 64 | 1017.8 |
| 20260502070226 | 32 | 0 | 0.0 | 0.0 | 0.00 | 0.01 | 0.00 | 64 | 1017.7 |
| 20260502070004 | 32 | 0 | 0.0 | 0.0 | 0.00 | 0.01 | 0.00 | 64 | 1017.6 |
| 20260502065805 | 32 | 0 | 0.0 | 0.0 | 0.00 | 0.01 | 0.00 | 64 | 1017.7 |
| 20260502065604 | 32 | 0 | 0.0 | 0.0 | 0.00 | 0.01 | 0.00 | 64 | 1017.7 |
| 20260502065405 | 32 | 0 | 0.0 | 0.0 | 0.00 | 0.01 | 0.00 | 64 | 1017.8 |
| 20260502065204 | 32 | 0 | 0.0 | 0.0 | 0.00 | 0.01 | 0.00 | 64 | 1017.7 |
| 20260502065004 | 32 | 0 | 0.0 | 0.0 | 0.00 | 0.01 | 0.00 | 64 | 1017.8 |
| 20260502064804 | 32 | 0 | 0.0 | 0.0 | 0.00 | 0.01 | 0.00 | 64 | 1017.7 |
| 20260502064626 | 32 | 0 | 0.0 | 0.0 | 0.00 | 0.01 | 0.00 | 64 | 1017.8 |
| 20260502064404 | 32 | 0 | 0.0 | 0.0 | 0.00 | 0.01 | 0.00 | 64 | 1017.8 |
| 20260502064204 | 32 | 0 | 0.0 | 0.0 | 0.00 | 0.01 | 0.00 | 64 | 1017.8 |
| 20260502064004 | 32 | 0 | 0.0 | 0.0 | 0.00 | 0.01 | 0.00 | 64 | 1017.8 |
| 20260502063805 | 32 | 0 | 0.0 | 0.0 | 0.00 | 0.02 | 0.00 | 64 | 1017.8 |
| 20260502063604 | 32 | 0 | 0.0 | 0.0 | 0.00 | 0.02 | 0.00 | 64 | 1017.9 |
| 20260502063404 | 32 | 0 | 0.0 | 0.0 | 0.00 | 0.02 | 0.00 | 64 | 1017.9 |
| 20260502063225 | 32 | 0 | 0.0 | 0.0 | 0.00 | 0.02 | 0.00 | 64 | 1017.9 |
| 20260502063004 | 32 | 0 | 0.0 | 0.0 | 0.00 | 0.02 | 0.00 | 64 | 1018.0 |
| 20260502062805 | 32 | 0 | 0.0 | 0.0 | 0.00 | 0.02 | 0.00 | 64 | 1018.0 |
| 20260502062604 | 32 | 0 | 0.0 | 0.0 | 0.00 | 0.02 | 0.00 | 64 | 1018.0 |
| 20260502062425 | 32 | 0 | 0.0 | 0.0 | 0.00 | 0.02 | 0.00 | 64 | 1018.0 |
| 20260502062225 | 32 | 0 | 0.0 | 0.0 | 0.00 | 0.02 | 0.00 | 64 | 1018.0 |
| 20260502062005 | 33 | 0 | 0.0 | 0.0 | 0.00 | 0.02 | 0.00 | 64 | 1018.0 |
| 20260502061805 | 33 | 0 | 0.0 | 0.0 | 0.00 | 0.02 | 0.00 | 63 | 1017.9 |
| 20260502061605 | 33 | 98 | 0.0 | 3.0 | 0.00 | 0.02 | 0.00 | 64 | 1018.0 |
| 20260502061404 | 32 | 98 | 0.0 | 3.0 | 0.00 | 0.02 | 0.00 | 64 | 1017.9 |
| 20260502061204 | 33 | 98 | 0.0 | 3.0 | 0.00 | 0.02 | 0.00 | 64 | 1018.0 |
| 20260502061005 | 32 | 98 | 0.0 | 3.0 | 0.00 | 0.03 | 0.00 | 64 | 1018.0 |
| 20260502060804 | 32 | 98 | 0.0 | 3.0 | 0.00 | 0.03 | 0.00 | 64 | 1018.0 |
| 20260502060605 | 32 | 96 | 0.0 | 1.0 | 0.00 | 0.03 | 0.00 | 64 | 1018.0 |
| 20260502060404 | 32 | 0 | 0.0 | 0.0 | 0.00 | 0.03 | 0.00 | 64 | 1018.0 |
| 20260502060205 | 32 | 0 | 0.0 | 0.0 | 0.00 | 0.03 | 0.00 | 64 | 1018.0 |
| 20260502060004 | 32 | 0 | 0.0 | 0.0 | 0.00 | 0.03 | 0.00 | 64 | 1018.1 |
| 20260502055805 | 32 | 0 | 0.0 | 0.0 | 0.00 | 0.03 | 0.00 | 64 | 1018.1 |
| 20260502055604 | 32 | 0 | 0.0 | 0.0 | 0.00 | 0.03 | 0.00 | 64 | 1018.1 |
| 20260502055405 | 32 | 0 | 0.0 | 0.0 | 0.00 | 0.03 | 0.00 | 64 | 1018.1 |
| 20260502055204 | 32 | 0 | 0.0 | 0.0 | 0.00 | 0.04 | 0.00 | 64 | 1018.2 |
| 20260502055005 | 32 | 0 | 0.0 | 0.0 | 0.00 | 0.04 | 0.00 | 64 | 1018.2 |
| 20260502054804 | 32 | 0 | 0.0 | 0.0 | 0.00 | 0.04 | 0.00 | 64 | 1018.2 |
| 20260502054605 | 32 | 0 | 0.0 | 0.0 | 0.00 | 0.04 | 0.00 | 64 | 1018.2 |
| 20260502054405 | 32 | 0 | 0.0 | 0.0 | 0.00 | 0.04 | 0.00 | 64 | 1018.2 |
| 20260502054205 | 33 | 0 | 0.0 | 0.0 | 0.00 | 0.04 | 0.00 | 64 | 1018.2 |
| 20260502054004 | 33 | 0 | 0.0 | 0.0 | 0.00 | 0.04 | 0.00 | 64 | 1018.1 |
| 20260502053805 | 33 | 0 | 0.0 | 0.0 | 0.00 | 0.04 | 0.00 | 64 | 1018.1 |
| 20260502053604 | 33 | 0 | 0.0 | 0.0 | 0.00 | 0.04 | 0.00 | 64 | 1018.1 |
| 20260502053405 | 33 | 0 | 0.0 | 0.0 | 0.00 | 0.04 | 0.00 | 64 | 1018.2 |
| 20260502053204 | 33 | 0 | 0.0 | 0.0 | 0.00 | 0.04 | 0.00 | 63 | 1018.2 |
| 20260502053004 | 33 | 0 | 0.0 | 0.0 | 0.00 | 0.04 | 0.00 | 64 | 1018.2 |
| 20260502052825 | 33 | 0 | 0.0 | 0.0 | 0.00 | 0.04 | 0.00 | 64 | 1018.2 |
| 20260502052604 | 33 | 88 | 0.0 | 1.0 | 0.00 | 0.04 | 0.00 | 64 | 1018.1 |
| 20260502052405 | 33 | 88 | 0.0 | 1.0 | 0.00 | 0.04 | 0.00 | 64 | 1018.1 |
| 20260502052204 | 33 | 88 | 0.0 | 1.0 | 0.00 | 0.04 | 0.00 | 64 | 1018.1 |
| 20260502052005 | 33 | 88 | 0.0 | 1.0 | 0.00 | 0.04 | 0.00 | 64 | 1018.1 |
| 20260502051804 | 33 | 88 | 0.0 | 1.0 | 0.00 | 0.04 | 0.00 | 63 | 1018.1 |
| 20260502051605 | 33 | 88 | 0.0 | 1.0 | 0.00 | 0.04 | 0.00 | 63 | 1018.1 |
| 20260502051404 | 33 | 88 | 0.0 | 1.0 | 0.00 | 0.04 | 0.00 | 63 | 1018.1 |
| 20260502051205 | 33 | 0 | 0.0 | 1.0 | 0.00 | 0.04 | 0.00 | 63 | 1018.1 |
| 20260502051004 | 33 | 0 | 0.0 | 0.0 | 0.00 | 0.04 | 0.00 | 63 | 1018.1 |
| 20260502050804 | 33 | 0 | 0.0 | 0.0 | 0.00 | 0.04 | 0.00 | 63 | 1018.1 |
| 20260502050604 | 33 | 0 | 0.0 | 0.0 | 0.00 | 0.04 | 0.00 | 63 | 1018.1 |
| 20260502050426 | 33 | 0 | 0.0 | 0.0 | 0.00 | 0.04 | 0.00 | 63 | 1018.1 |
| 20260502050205 | 34 | 0 | 0.0 | 0.0 | 0.00 | 0.04 | 0.00 | 63 | 1018.1 |
| 20260502050004 | 34 | 0 | 0.0 | 0.0 | 0.00 | 0.04 | 0.00 | 62 | 1018.1 |
| 20260502045804 | 34 | 88 | 0.0 | 1.0 | 0.00 | 0.04 | 0.00 | 62 | 1018.1 |
| 20260502045605 | 34 | 88 | 0.0 | 1.0 | 0.00 | 0.04 | 0.00 | 62 | 1018.1 |
| 20260502045404 | 34 | 88 | 0.0 | 2.0 | 0.00 | 0.04 | 0.00 | 62 | 1018.1 |
| 20260502045204 | 34 | 88 | 0.0 | 2.0 | 0.00 | 0.04 | 0.00 | 61 | 1018.1 |
| 20260502045005 | 34 | 88 | 0.0 | 2.0 | 0.00 | 0.04 | 0.00 | 62 | 1018.1 |
| 20260502044804 | 34 | 87 | 1.0 | 3.0 | 0.00 | 0.04 | 0.00 | 61 | 1018.1 |
| 20260502044605 | 35 | 82 | 1.0 | 3.0 | 0.00 | 0.04 | 0.00 | 61 | 1018.1 |
| 20260502044424 | 35 | 81 | 1.0 | 3.0 | 0.00 | 0.05 | 0.00 | 61 | 1018.0 |
| 20260502044204 | 35 | 86 | 1.0 | 3.0 | 0.00 | 0.05 | 0.00 | 61 | 1018.1 |
| 20260502044004 | 35 | 96 | 1.0 | 5.0 | 0.00 | 0.05 | 0.00 | 61 | 1018.0 |
| 20260502043804 | 35 | 91 | 1.0 | 5.0 | 0.00 | 0.05 | 0.00 | 61 | 1018.0 |
| 20260502043605 | 35 | 93 | 2.0 | 6.0 | 0.00 | 0.05 | 0.00 | 61 | 1018.0 |
| 20260502043404 | 35 | 90 | 2.0 | 6.0 | 0.00 | 0.05 | 0.00 | 60 | 1018.0 |
| 20260502043224 | 35 | 82 | 2.0 | 6.0 | 0.00 | 0.05 | 0.00 | 60 | 1018.0 |
| 20260502043005 | 35 | 71 | 2.0 | 6.0 | 0.00 | 0.05 | 0.00 | 60 | 1018.0 |
| 20260502042804 | 35 | 73 | 2.0 | 6.0 | 0.00 | 0.06 | 0.00 | 60 | 1018.0 |
| 20260502042604 | 35 | 77 | 2.0 | 6.0 | 0.00 | 0.06 | 0.00 | 60 | 1017.9 |
| 20260502042403 | 35 | 74 | 2.0 | 5.0 | 0.00 | 0.06 | 0.00 | 60 | 1018.0 |
| 20260502042205 | 35 | 77 | 2.0 | 5.0 | 0.00 | 0.06 | 0.00 | 60 | 1018.0 |
| 20260502042026 | 35 | 72 | 2.0 | 5.0 | 0.00 | 0.06 | 0.00 | 60 | 1018.0 |
| 20260502041804 | 35 | 68 | 3.0 | 5.0 | 0.00 | 0.06 | 0.00 | 60 | 1017.9 |
| 20260502041625 | 35 | 59 | 3.0 | 5.0 | 0.00 | 0.06 | 0.00 | 60 | 1018.0 |
| 20260502041405 | 35 | 55 | 3.0 | 5.0 | 0.00 | 0.06 | 0.00 | 60 | 1017.9 |
| 20260502041225 | 35 | 54 | 3.0 | 5.0 | 0.00 | 0.06 | 0.00 | 60 | 1017.9 |
| 20260502041025 | 35 | 62 | 3.0 | 5.0 | 0.00 | 0.06 | 0.00 | 60 | 1018.0 |
| 20260502040804 | 35 | 67 | 2.0 | 5.0 | 0.00 | 0.07 | 0.00 | 59 | 1017.9 |
| 20260502040625 | 36 | 70 | 2.0 | 5.0 | 0.00 | 0.07 | 0.00 | 60 | 1017.9 |
| 20260502040425 | 36 | 72 | 2.0 | 5.0 | 0.00 | 0.08 | 0.00 | 59 | 1017.9 |
| 20260502040205 | 36 | 62 | 3.0 | 5.0 | 0.00 | 0.08 | 0.00 | 59 | 1017.9 |
| 20260502040005 | 36 | 51 | 2.0 | 5.0 | 0.00 | 0.08 | 0.00 | 59 | 1017.9 |
| 20260502035805 | 36 | 44 | 3.0 | 6.0 | 0.00 | 0.08 | 0.08 | 59 | 1017.9 |
| 20260502035604 | 36 | 43 | 3.0 | 6.0 | 0.00 | 0.08 | 0.08 | 59 | 1017.8 |
| 20260502035426 | 36 | 45 | 3.0 | 6.0 | 0.00 | 0.08 | 0.08 | 59 | 1017.8 |
| 20260502035204 | 36 | 54 | 2.0 | 6.0 | 0.00 | 0.08 | 0.08 | 59 | 1017.9 |
| 20260502035005 | 36 | 63 | 3.0 | 6.0 | 0.00 | 0.08 | 0.08 | 59 | 1017.8 |
| 20260502034804 | 36 | 69 | 3.0 | 6.0 | 0.00 | 0.08 | 0.08 | 59 | 1017.7 |
| 20260502034604 | 36 | 72 | 3.0 | 6.0 | 0.00 | 0.08 | 0.08 | 59 | 1017.8 |
| 20260502034405 | 36 | 70 | 3.0 | 6.0 | 0.00 | 0.08 | 0.08 | 59 | 1017.8 |
| 20260502034225 | 36 | 68 | 3.0 | 6.0 | 0.00 | 0.08 | 0.08 | 59 | 1017.7 |
| 20260502034004 | 36 | 60 | 3.0 | 6.0 | 0.00 | 0.08 | 0.08 | 59 | 1017.7 |
| 20260502033804 | 35 | 53 | 3.0 | 6.0 | 0.00 | 0.08 | 0.08 | 59 | 1017.7 |
| 20260502033605 | 35 | 47 | 2.0 | 6.0 | 0.00 | 0.09 | 0.08 | 59 | 1017.7 |
| 20260502033404 | 35 | 41 | 2.0 | 6.0 | 0.00 | 0.09 | 0.08 | 59 | 1017.6 |
| 20260502033205 | 35 | 41 | 2.0 | 6.0 | 0.00 | 0.09 | 0.08 | 59 | 1017.6 |
| 20260502033004 | 35 | 41 | 2.0 | 5.0 | 0.00 | 0.09 | 0.08 | 59 | 1017.6 |
| 20260502032805 | 35 | 40 | 2.0 | 5.0 | 0.00 | 0.09 | 0.08 | 59 | 1017.6 |
| 20260502032605 | 35 | 42 | 2.0 | 5.0 | 0.00 | 0.09 | 0.08 | 59 | 1017.5 |
| 20260502032404 | 35 | 45 | 2.0 | 5.0 | 0.00 | 0.09 | 0.08 | 59 | 1017.6 |
| 20260502032226 | 35 | 44 | 2.0 | 5.0 | 0.00 | 0.09 | 0.08 | 59 | 1017.6 |
| 20260502032005 | 35 | 41 | 2.0 | 5.0 | 0.00 | 0.09 | 0.08 | 59 | 1017.6 |
| 20260502031825 | 35 | 41 | 2.0 | 6.0 | 0.00 | 0.09 | 0.08 | 58 | 1017.6 |
| 20260502031605 | 35 | 37 | 2.0 | 6.0 | 0.00 | 0.09 | 0.08 | 59 | 1017.5 |
| 20260502031404 | 35 | 37 | 2.0 | 6.0 | 0.00 | 0.10 | 0.08 | 58 | 1017.5 |
| 20260502031205 | 35 | 34 | 2.0 | 6.0 | 0.00 | 0.10 | 0.08 | 58 | 1017.5 |
| 20260502031025 | 35 | 31 | 2.0 | 6.0 | 0.00 | 0.10 | 0.08 | 58 | 1017.5 |
| 20260502030804 | 35 | 32 | 2.0 | 5.0 | 0.00 | 0.10 | 0.08 | 58 | 1017.4 |
| 20260502030605 | 35 | 38 | 1.0 | 4.0 | 0.00 | 0.10 | 0.08 | 58 | 1017.5 |
| 20260502030405 | 35 | 33 | 2.0 | 4.0 | 0.00 | 0.10 | 0.08 | 58 | 1017.5 |
| 20260502030204 | 35 | 30 | 2.0 | 4.0 | 0.00 | 0.10 | 0.08 | 58 | 1017.4 |
| 20260502030004 | 35 | 33 | 2.0 | 4.0 | 0.00 | 0.10 | 0.08 | 57 | 1017.5 |
| 20260502025804 | 35 | 27 | 2.0 | 4.0 | 0.00 | 0.11 | 0.08 | 58 | 1017.4 |
| 20260502025604 | 35 | 22 | 2.0 | 4.0 | 0.00 | 0.11 | 0.08 | 57 | 1017.4 |
| 20260502025404 | 35 | 22 | 2.0 | 4.0 | 0.00 | 0.11 | 0.08 | 58 | 1017.5 |
| 20260502025225 | 35 | 26 | 2.0 | 5.0 | 0.00 | 0.12 | 0.08 | 58 | 1017.5 |
| 20260502025004 | 35 | 25 | 2.0 | 5.0 | 0.00 | 0.12 | 0.08 | 58 | 1017.5 |
| 20260502024826 | 35 | 22 | 3.0 | 5.0 | 0.00 | 0.12 | 0.08 | 58 | 1017.5 |
| 20260502024625 | 35 | 23 | 3.0 | 5.0 | 0.00 | 0.12 | 0.08 | 57 | 1017.5 |
| 20260502024404 | 35 | 22 | 2.0 | 5.0 | 0.00 | 0.12 | 0.08 | 57 | 1017.5 |
| 20260502024204 | 35 | 20 | 2.0 | 5.0 | 0.00 | 0.13 | 0.08 | 57 | 1017.6 |
| 20260502024004 | 35 | 14 | 2.0 | 5.0 | 0.00 | 0.13 | 0.08 | 58 | 1017.5 |
| 20260502023804 | 35 | 14 | 2.0 | 5.0 | 0.00 | 0.13 | 0.08 | 58 | 1017.5 |
| 20260502023625 | 35 | 13 | 2.0 | 5.0 | 0.00 | 0.14 | 0.08 | 58 | 1017.5 |
| 20260502023404 | 35 | 16 | 2.0 | 5.0 | 0.00 | 0.14 | 0.08 | 57 | 1017.5 |
| 20260502023204 | 36 | 22 | 2.0 | 5.0 | 0.00 | 0.14 | 0.08 | 57 | 1017.4 |
| 20260502023004 | 36 | 25 | 2.0 | 5.0 | 0.00 | 0.14 | 0.08 | 56 | 1017.4 |
| 20260502022804 | 36 | 30 | 2.0 | 5.0 | 0.00 | 0.15 | 0.08 | 56 | 1017.4 |
| 20260502022604 | 36 | 35 | 2.0 | 5.0 | 0.00 | 0.15 | 0.08 | 55 | 1017.4 |
| 20260502022405 | 36 | 32 | 2.0 | 5.0 | 0.00 | 0.15 | 0.08 | 53 | 1017.4 |
| 20260502022205 | 36 | 30 | 2.0 | 5.0 | 0.00 | 0.16 | 0.08 | 54 | 1017.4 |
| 20260502022004 | 36 | 37 | 2.0 | 5.0 | 0.00 | 0.16 | 0.08 | 54 | 1017.4 |
| 20260502021804 | 36 | 37 | 2.0 | 4.0 | 0.00 | 0.16 | 0.08 | 54 | 1017.3 |
| 20260502021604 | 36 | 38 | 2.0 | 4.0 | 0.00 | 0.16 | 0.08 | 54 | 1017.3 |
| 20260502021404 | 36 | 40 | 2.0 | 4.0 | 0.00 | 0.17 | 0.08 | 54 | 1017.3 |
| 20260502021205 | 36 | 40 | 1.0 | 4.0 | 0.00 | 0.17 | 0.08 | 53 | 1017.3 |
| 20260502021025 | 36 | 37 | 1.0 | 4.0 | 0.00 | 0.17 | 0.08 | 54 | 1017.3 |
| 20260502020826 | 36 | 40 | 1.0 | 3.0 | 0.00 | 0.17 | 0.08 | 54 | 1017.2 |
| 20260502020604 | 37 | 42 | 1.0 | 4.0 | 0.00 | 0.17 | 0.08 | 52 | 1017.2 |
| 20260502020405 | 37 | 36 | 2.0 | 5.0 | 0.00 | 0.17 | 0.08 | 53 | 1017.2 |
| 20260502020204 | 37 | 36 | 2.0 | 5.0 | 0.00 | 0.17 | 0.08 | 52 | 1017.2 |
| 20260502020004 | 37 | 45 | 2.0 | 5.0 | 0.00 | 0.17 | 0.08 | 51 | 1017.2 |
| 20260502015803 | 37 | 48 | 2.0 | 5.0 | 0.00 | 0.18 | 0.08 | 50 | 1017.2 |
| 20260502015604 | 37 | 53 | 2.0 | 5.0 | 0.00 | 0.18 | 0.08 | 50 | 1017.2 |
| 20260502015404 | 37 | 60 | 2.0 | 6.0 | 0.00 | 0.18 | 0.08 | 50 | 1017.2 |
| 20260502015225 | 37 | 65 | 2.0 | 6.0 | 0.00 | 0.18 | 0.08 | 50 | 1017.2 |
| 20260502015003 | 37 | 58 | 3.0 | 6.0 | 0.00 | 0.18 | 0.08 | 49 | 1017.2 |
| 20260502014804 | 38 | 54 | 3.0 | 7.0 | 0.00 | 0.18 | 0.08 | 49 | 1017.1 |
| 20260502014625 | 38 | 52 | 3.0 | 7.0 | 0.00 | 0.18 | 0.08 | 48 | 1017.1 |
| 20260502014404 | 38 | 49 | 3.0 | 7.0 | 0.00 | 0.18 | 0.08 | 48 | 1017.1 |
| 20260502014204 | 38 | 45 | 4.0 | 9.0 | 0.00 | 0.18 | 0.08 | 48 | 1017.1 |
| 20260502014025 | 38 | 48 | 4.0 | 9.0 | 0.00 | 0.18 | 0.08 | 48 | 1017.1 |
| 20260502013805 | 38 | 48 | 5.0 | 9.0 | 0.00 | 0.19 | 0.08 | 48 | 1017.1 |
| 20260502013605 | 38 | 52 | 5.0 | 12.0 | 0.00 | 0.19 | 0.08 | 47 | 1017.1 |
| 20260502013405 | 38 | 55 | 6.0 | 12.0 | 0.00 | 0.19 | 0.08 | 47 | 1017.0 |
| 20260502013206 | 38 | 55 | 5.0 | 12.0 | 0.00 | 0.19 | 0.08 | 47 | 1016.9 |
| 20260502013004 | 38 | 49 | 6.0 | 12.0 | 0.00 | 0.19 | 0.08 | 46 | 1016.8 |
| 20260502012804 | 38 | 49 | 5.0 | 12.0 | 0.00 | 0.19 | 0.08 | 46 | 1016.8 |
| 20260502012603 | 39 | 45 | 5.0 | 11.0 | 0.00 | 0.19 | 0.08 | 46 | 1016.8 |
| 20260502012405 | 39 | 40 | 5.0 | 11.0 | 0.00 | 0.19 | 0.08 | 48 | 1016.7 |
| 20260502012204 | 39 | 41 | 5.0 | 11.0 | 0.00 | 0.19 | 0.08 | 47 | 1016.8 |
| 20260502012005 | 39 | 41 | 5.0 | 11.0 | 0.00 | 0.19 | 0.08 | 49 | 1016.7 |
| 20260502011804 | 39 | 39 | 5.0 | 10.0 | 0.00 | 0.19 | 0.08 | 49 | 1016.7 |
| 20260502011604 | 39 | 42 | 5.0 | 9.0 | 0.00 | 0.19 | 0.08 | 50 | 1016.7 |
| 20260502011405 | 39 | 43 | 5.0 | 10.0 | 0.00 | 0.19 | 0.08 | 50 | 1016.6 |
| 20260502011225 | 39 | 36 | 5.0 | 10.0 | 0.00 | 0.20 | 0.08 | 51 | 1016.6 |
| 20260502011005 | 40 | 41 | 5.0 | 10.0 | 0.00 | 0.20 | 0.08 | 51 | 1016.6 |
| 20260502010804 | 40 | 49 | 5.0 | 10.0 | 0.00 | 0.20 | 0.08 | 52 | 1016.6 |
| 20260502010605 | 40 | 43 | 5.0 | 10.0 | 0.00 | 0.20 | 0.08 | 51 | 1016.6 |
| 20260502010405 | 40 | 38 | 5.0 | 10.0 | 0.00 | 0.20 | 0.08 | 50 | 1016.6 |
| 20260502010205 | 40 | 36 | 5.0 | 10.0 | 0.00 | 0.20 | 0.08 | 51 | 1016.6 |
| 20260502010005 | 40 | 34 | 5.0 | 10.0 | 0.00 | 0.20 | 0.08 | 51 | 1016.5 |
| 20260502005825 | 40 | 25 | 5.0 | 10.0 | 0.00 | 0.20 | 0.08 | 51 | 1016.5 |
| 20260502005605 | 40 | 20 | 5.0 | 10.0 | 0.00 | 0.20 | 0.08 | 51 | 1016.5 |
| 20260502005404 | 40 | 17 | 4.0 | 7.0 | 0.00 | 0.20 | 0.08 | 52 | 1016.4 |
| 20260502005205 | 40 | 17 | 4.0 | 7.0 | 0.00 | 0.20 | 0.08 | 52 | 1016.4 |
| 20260502005025 | 40 | 13 | 4.0 | 8.0 | 0.00 | 0.20 | 0.08 | 52 | 1016.4 |
| 20260502004805 | 40 | 15 | 4.0 | 8.0 | 0.00 | 0.20 | 0.08 | 52 | 1016.4 |
| 20260502004604 | 40 | 15 | 3.0 | 8.0 | 0.00 | 0.20 | 0.08 | 53 | 1016.4 |
| 20260502004405 | 40 | 15 | 4.0 | 8.0 | 0.00 | 0.20 | 0.08 | 52 | 1016.4 |
| 20260502004204 | 40 | 14 | 4.0 | 8.0 | 0.00 | 0.20 | 0.08 | 52 | 1016.3 |
| 20260502004004 | 40 | 10 | 4.0 | 8.0 | 0.00 | 0.21 | 0.08 | 51 | 1016.3 |
| 20260502003804 | 41 | 4 | 5.0 | 11.0 | 0.00 | 0.21 | 0.08 | 52 | 1016.3 |
| 20260502003604 | 41 | 7 | 5.0 | 11.0 | 0.00 | 0.21 | 0.08 | 51 | 1016.3 |
| 20260502003404 | 41 | 7 | 5.0 | 11.0 | 0.00 | 0.21 | 0.08 | 50 | 1016.3 |
| 20260502003225 | 42 | 10 | 5.0 | 11.0 | 0.00 | 0.21 | 0.08 | 49 | 1016.3 |
| 20260502003005 | 42 | 16 | 4.0 | 11.0 | 0.00 | 0.21 | 0.08 | 47 | 1016.3 |
| 20260502002804 | 42 | 21 | 4.0 | 8.0 | 0.00 | 0.21 | 0.08 | 48 | 1016.3 |
| 20260502002604 | 42 | 21 | 4.0 | 8.0 | 0.00 | 0.21 | 0.08 | 46 | 1016.2 |
| 20260502002404 | 42 | 23 | 4.0 | 10.0 | 0.00 | 0.21 | 0.08 | 46 | 1016.3 |
| 20260502002205 | 43 | 19 | 4.0 | 10.0 | 0.00 | 0.21 | 0.08 | 47 | 1016.2 |
| 20260502002004 | 43 | 17 | 4.0 | 10.0 | 0.00 | 0.22 | 0.08 | 45 | 1016.2 |
| 20260502001805 | 43 | 23 | 4.0 | 10.0 | 0.00 | 0.22 | 0.08 | 45 | 1016.2 |
| 20260502001625 | 44 | 31 | 4.0 | 10.0 | 0.00 | 0.22 | 0.08 | 44 | 1016.2 |
| 20260502001405 | 44 | 41 | 4.0 | 8.0 | 0.00 | 0.22 | 0.08 | 43 | 1016.2 |
| 20260502001204 | 44 | 53 | 4.0 | 8.0 | 0.00 | 0.22 | 0.08 | 43 | 1016.1 |
| 20260502001005 | 44 | 65 | 4.0 | 8.0 | 0.00 | 0.22 | 0.08 | 41 | 1016.1 |
| 20260502000805 | 44 | 75 | 5.0 | 8.0 | 0.00 | 0.22 | 0.08 | 40 | 1016.0 |
| 20260502000605 | 44 | 73 | 4.0 | 7.0 | 0.00 | 0.22 | 0.08 | 39 | 1016.0 |
| 20260502000425 | 44 | 80 | 4.0 | 7.0 | 0.00 | 0.22 | 0.08 | 38 | 1015.9 |
| 20260502000204 | 44 | 87 | 4.0 | 7.0 | 0.00 | 0.22 | 0.08 | 40 | 1016.0 |
| 20260502000005 | 44 | 89 | 4.0 | 9.0 | 0.00 | 0.22 | 0.08 | 38 | 1015.9 |
| 20260501235804 | 44 | 88 | 4.0 | 10.0 | 0.00 | 0.22 | 0.08 | 42 | 1016.1 |
| 20260501235605 | 44 | 92 | 5.0 | 13.0 | 0.00 | 0.22 | 0.08 | 42 | 1015.9 |
| 20260501235404 | 44 | 87 | 6.0 | 13.0 | 0.00 | 0.22 | 0.08 | 42 | 1015.9 |
| 20260501235205 | 44 | 83 | 6.0 | 13.0 | 0.00 | 0.22 | 0.08 | 43 | 1015.9 |
| 20260501235004 | 44 | 84 | 6.0 | 13.0 | 0.00 | 0.22 | 0.08 | 43 | 1015.9 |
| 20260501234805 | 44 | 84 | 7.0 | 18.0 | 0.00 | 0.22 | 0.08 | 41 | 1015.9 |
| 20260501234625 | 44 | 73 | 7.0 | 18.0 | 0.00 | 0.22 | 0.08 | 43 | 1015.9 |
| 20260501234405 | 44 | 70 | 7.0 | 18.0 | 0.00 | 0.22 | 0.08 | 42 | 1015.9 |